Home   Weather   Rankweil   Past weeks
Flag for Austria

Past Weather in Rankweil, Vorarlberg, Austria — Yesterday and Last 2 Weeks

Now
46 °F

Passing clouds.


Feels Like: 46 °F
Forecast: 65 / 53 °F
Wind: No wind

Location: Feldkirch

Current Time: Oct 20, 2019 at 8:36:30 am

Latest Report: Oct 20, 2019 at 7:00 am


Visibility: 13 mi

Pressure: 29.80 "Hg

Humidity: 98%

Dew Point: 45 °F

Location of RankweilLocation

Past Weather in Rankweil — Graph

°F

Rankweil Temperature Yesterday

Maximum temperature yesterday: 61 °F (at 4:00 pm)
Minimum temperature yesterday: 51 °F (at 12:00 am)
Average temperature yesterday: 54 °F

High & Low Weather Summary for the Past Weeks

 TemperatureHumidityPressure
High71 °F (Oct 13, 3:00 pm)98% (Oct 6, 7:00 am)30.25 "Hg (Oct 6, 7:00 am)
Low42 °F (Oct 11, 7:00 am)37% (Oct 15, 3:00 am)29.67 "Hg (Oct 15, 12:00 pm)
Average54 °F79%29.99 "Hg
* Reported Oct 5 7:00 am — Oct 20 7:00 am, Rankweil. Weather by CustomWeather, © 2019

Note: Actual official high and low records may vary slightly from our data, if they occured in-between our weather recording intervals... More about our weather records

Advertising

Rankweil Weather History for the Previous 24 Hours

Scroll right to see more
 ConditionsComfort  
Time TempWeatherWind HumidityBarometerVisibility
7:00 am
Sun, Oct 20
46 °FPassing clouds.No wind98%29.80 "Hg12 mi
6:00 am46 °FCool.1 mph97%29.80 "HgN/A
5:00 am46 °FCool.1 mph97%29.79 "HgN/A
4:00 am47 °FCool.1 mph97%29.80 "HgN/A
3:00 am48 °FCool.No wind96%29.81 "HgN/A
2:00 am49 °FCool.No wind96%29.81 "HgN/A
1:00 am51 °FCool.1 mph94%29.80 "HgN/A
12:00 am51 °FCool.1 mph95%29.80 "HgN/A
11:00 pm
Sat, Oct 19
51 °FCool.No wind95%29.79 "HgN/A
10:00 pm52 °FCool.1 mph94%29.78 "HgN/A
9:00 pm53 °FCool.1 mph94%29.78 "HgN/A
8:00 pm54 °FCool.No wind92%29.78 "HgN/A
7:00 pm56 °FCool.No wind88%29.78 "HgN/A
6:00 pm58 °FCool.1 mph83%29.78 "HgN/A
5:00 pm60 °FCool.No wind78%29.78 "HgN/A
4:00 pm61 °FCool.1 mph75%29.80 "HgN/A
3:00 pm60 °FCool.1 mph77%29.83 "HgN/A
2:00 pm58 °FCool.1 mph82%29.88 "HgN/A
1:00 pm55 °FCool.1 mph92%29.92 "HgN/A
12:00 pm55 °FFog.2 mph91%29.93 "HgN/A
11:00 am55 °FSprinkles. Overcast.3 mph88%29.90 "Hg12 mi
10:00 am54 °FCool.1 mph88%29.87 "HgN/A
9:00 am54 °FCool.1 mph87%29.84 "HgN/A
8:00 am54 °FCool.3 mph85%29.82 "HgN/A
Weather by CustomWeather, © 2019

See weather overview